Location: Derby
(52.9213°N, 1.4761°W)
Time: 01:15:38
(UTC+01:00)

Vanguard 2 Rocket - Pass Details

Date: 22 May 2025
Orbit: 554 x 3293 km, 32.9° (Epoch: 12 June)

Event Time Altitude Azimuth Distance (km) Brightness Sun altitude
Rises 04:06:25 0° 263° (W) 6,182 10.7 -6.6°
Reaches altitude 10° 04:13:01 10° 246° (WSW) 4,564 9.9 -5.9°
Maximum altitude 04:19:15 16° 214° (SW) 3,441 9.2 -5.2°
Drops below altitude 10° 04:24:04 10° 180° (S) 3,351 9.4 -4.7°
Sets 04:27:46 0° 159° (SSE) 3,885 9.9 -4.3°
